Track EGS (AJISAI) now! 10-day predictions EGS (AJISAI) is classified as:
1 16908U 86061A 25186.60887358 -.00000102 00000-0 -33916-4 0 9993 2 16908 50.0079 133.1129 0011397 18.1424 42.9195 12.44512682437232